| time (UTC) | temp F | wind direction | speed MPH | gust MPH | rain 1hr in | rain 24hr in | rain mn in | humidity % | barometer mb |
| 20260507183046 | 62 | 68 | 2.0 | 6.0 | 0.00 | 0.09 | 0.09 | 97 | 1018.6 |
| 20260507181540 | 62 | 105 | 0.0 | 2.0 | 0.00 | 0.09 | 0.09 | 97 | 1018.8 |
| 20260507180045 | 61 | 119 | 0.0 | 1.0 | 0.00 | 0.09 | 0.09 | 97 | 1018.7 |
| 20260507174539 | 61 | 146 | 0.0 | 0.0 | 0.00 | 0.09 | 0.09 | 96 | 1018.9 |
| 20260507173037 | 61 | 147 | 0.0 | 0.0 | 0.00 | 0.09 | 0.09 | 96 | 1019.0 |
| 20260507171535 | 61 | 146 | 0.0 | 0.0 | 0.00 | 0.09 | 0.09 | 96 | 1019.1 |
| 20260507170037 | 61 | 146 | 0.0 | 0.0 | 0.00 | 0.09 | 0.09 | 96 | 1019.1 |
| 20260507164541 | 61 | 146 | 0.0 | 1.0 | 0.00 | 0.09 | 0.09 | 96 | 1019.1 |
| 20260507163033 | 61 | 146 | 0.0 | 0.0 | 0.00 | 0.09 | 0.09 | 96 | 1019.2 |
| 20260507161533 | 61 | 147 | 0.0 | 1.0 | 0.00 | 0.09 | 0.09 | 96 | 1019.1 |
| 20260507160032 | 62 | 147 | 0.0 | 0.0 | 0.00 | 0.09 | 0.09 | 96 | 1019.3 |
| 20260507154530 | 62 | 146 | 0.0 | 0.0 | 0.00 | 0.09 | 0.09 | 96 | 1019.5 |
| 20260507153026 | 62 | 147 | 0.0 | 0.0 | 0.00 | 0.09 | 0.09 | 96 | 1019.7 |
| 20260507151525 | 62 | 146 | 0.0 | 0.0 | 0.00 | 0.09 | 0.09 | 96 | 1019.9 |
| 20260507150025 | 62 | 146 | 0.0 | 1.0 | 0.01 | 0.09 | 0.09 | 95 | 1020.1 |
| 20260507144525 | 62 | 146 | 0.0 | 1.0 | 0.01 | 0.09 | 0.09 | 95 | 1020.3 |
| 20260507143017 | 62 | 96 | 0.0 | 1.0 | 0.05 | 0.09 | 0.09 | 95 | 1020.5 |
| 20260507141516 | 62 | 96 | 0.0 | 1.0 | 0.05 | 0.09 | 0.09 | 95 | 1020.6 |
| 20260507140014 | 62 | 96 | 0.0 | 3.0 | 0.04 | 0.08 | 0.08 | 95 | 1020.7 |
| 20260507134513 | 62 | 78 | 0.0 | 4.0 | 0.05 | 0.08 | 0.08 | 95 | 1020.8 |
| 20260507133011 | 62 | 74 | 2.0 | 6.0 | 0.04 | 0.04 | 0.04 | 95 | 1021.0 |
| 20260507131509 | 62 | 111 | 0.0 | 5.0 | 0.04 | 0.04 | 0.04 | 94 | 1021.1 |
| 20260507130006 | 63 | 88 | 1.0 | 5.0 | 0.04 | 0.04 | 0.04 | 93 | 1021.3 |
| 20260507124505 | 63 | 12 | 3.0 | 11.0 | 0.03 | 0.03 | 0.03 | 92 | 1021.5 |
| 20260507123006 | 64 | 105 | 1.0 | 5.0 | 0.00 | 0.00 | 0.00 | 92 | 1021.4 |
| 20260507121616 | 63 | 120 | 0.0 | 4.0 | 0.00 | 0.00 | 0.00 | 93 | 1021.5 |
| 20260507120103 | 63 | 82 | 1.0 | 3.0 | 0.00 | 0.00 | 0.00 | 94 | 1021.6 |
| 20260507114638 | 63 | 107 | 0.0 | 3.0 | 0.00 | 0.00 | 0.00 | 94 | 1021.6 |
| 20260507113054 | 61 | 116 | 0.0 | 2.0 | 0.00 | 0.00 | 0.00 | 95 | 1021.8 |
| 20260507111558 | 60 | 111 | 0.0 | 1.0 | 0.00 | 0.00 | 0.00 | 94 | 1022.0 |
| 20260507110052 | 59 | 112 | 0.0 | 1.0 | 0.00 | 0.00 | 0.00 | 93 | 1022.1 |
| 20260507104551 | 59 | 112 | 0.0 | 1.0 | 0.00 | 0.00 | 0.00 | 92 | 1022.3 |
| 20260507103048 | 60 | 111 | 0.0 | 1.0 | 0.00 | 0.00 | 0.00 | 91 | 1022.1 |
| 20260507101547 | 62 | 110 | 0.0 | 1.0 | 0.00 | 0.00 | 0.00 | 91 | 1022.1 |
| 20260507100043 | 62 | 111 | 0.0 | 2.0 | 0.00 | 0.00 | 0.00 | 92 | 1022.3 |
| 20260507094543 | 63 | 110 | 0.0 | 2.0 | 0.00 | 0.00 | 0.00 | 91 | 1022.2 |
| 20260507093047 | 63 | 111 | 0.0 | 1.0 | 0.00 | 0.00 | 0.00 | 90 | 1022.4 |
| 20260507091546 | 63 | 111 | 0.0 | 1.0 | 0.00 | 0.00 | 0.00 | 90 | 1022.4 |
| 20260507090042 | 62 | 111 | 0.0 | 1.0 | 0.00 | 0.00 | 0.00 | 91 | 1022.5 |
| 20260507084553 | 62 | 109 | 0.0 | 1.0 | 0.00 | 0.00 | 0.00 | 90 | 1022.6 |
| 20260507083039 | 62 | 109 | 0.0 | 1.0 | 0.00 | 0.00 | 0.00 | 90 | 1022.6 |
| 20260507081540 | 62 | 109 | 0.0 | 0.0 | 0.00 | 0.00 | 0.00 | 90 | 1022.7 |
| 20260507080041 | 62 | 108 | 0.0 | 1.0 | 0.00 | 0.00 | 0.00 | 89 | 1022.8 |
| 20260507074537 | 62 | 108 | 0.0 | 1.0 | 0.00 | 0.00 | 0.00 | 88 | 1022.8 |
| 20260507073036 | 62 | 108 | 0.0 | 2.0 | 0.00 | 0.00 | 0.00 | 88 | 1022.8 |
| 20260507071535 | 62 | 108 | 0.0 | 1.0 | 0.00 | 0.00 | 0.00 | 88 | 1022.8 |
| 20260507070036 | 62 | 103 | 0.0 | 1.0 | 0.00 | 0.00 | 0.00 | 87 | 1022.7 |
| 20260507064535 | 63 | 98 | 0.0 | 3.0 | 0.00 | 0.00 | 0.00 | 86 | 1022.6 |
| 20260507063134 | 63 | 105 | 0.0 | 2.0 | 0.00 | 0.00 | 0.00 | 85 | 1022.5 |
| 20260507061532 | 64 | 103 | 0.0 | 2.0 | 0.00 | 0.00 | 0.00 | 86 | 1022.4 |
| 20260507060035 | 64 | 99 | 0.0 | 1.0 | 0.00 | 0.00 | 0.00 | 85 | 1022.6 |
| 20260507054536 | 64 | 99 | 0.0 | 2.0 | 0.00 | 0.01 | 0.00 | 84 | 1022.8 |
| 20260507053029 | 65 | 100 | 0.0 | 1.0 | 0.00 | 0.01 | 0.00 | 83 | 1022.7 |
| 20260507051531 | 65 | 101 | 0.0 | 2.0 | 0.00 | 0.01 | 0.00 | 82 | 1022.7 |
| 20260507050029 | 66 | 98 | 0.0 | 2.0 | 0.00 | 0.01 | 0.00 | 81 | 1022.8 |
| 20260507044526 | 66 | 115 | 0.0 | 2.0 | 0.00 | 0.01 | 0.00 | 80 | 1022.7 |
| 20260507043025 | 67 | 103 | 0.0 | 3.0 | 0.00 | 0.01 | 0.00 | 79 | 1022.9 |
| 20260507041523 | 67 | 106 | 0.0 | 3.0 | 0.00 | 0.01 | 0.00 | 79 | 1023.1 |
| 20260507040022 | 68 | 98 | 1.0 | 3.0 | 0.00 | 0.01 | 0.00 | 78 | 1023.2 |
| 20260507034522 | 68 | 120 | 0.0 | 4.0 | 0.00 | 0.01 | 0.00 | 77 | 1023.2 |
| 20260507033021 | 68 | 108 | 0.0 | 4.0 | 0.00 | 0.01 | 0.00 | 77 | 1023.4 |
| 20260507031517 | 69 | 63 | 2.0 | 7.0 | 0.00 | 0.01 | 0.00 | 74 | 1023.6 |
| 20260507030020 | 70 | 82 | 1.0 | 5.0 | 0.00 | 0.01 | 0.00 | 73 | 1023.6 |
| 20260507024516 | 71 | 132 | 1.0 | 6.0 | 0.00 | 0.01 | 0.00 | 71 | 1023.6 |
| 20260507023014 | 71 | 41 | 3.0 | 7.0 | 0.00 | 0.01 | 0.00 | 72 | 1023.6 |
| 20260507021511 | 70 | 74 | 2.0 | 8.0 | 0.00 | 0.01 | 0.00 | 74 | 1023.7 |
| 20260507020010 | 69 | 25 | 2.0 | 8.0 | 0.00 | 0.01 | 0.00 | 75 | 1023.8 |
| 20260507014507 | 69 | 93 | 2.0 | 8.0 | 0.00 | 0.01 | 0.00 | 74 | 1024.0 |
| 20260507013012 | 69 | 80 | 3.0 | 7.0 | 0.00 | 0.01 | 0.00 | 76 | 1024.0 |
| 20260507011509 | 68 | 102 | 2.0 | 6.0 | 0.00 | 0.01 | 0.00 | 79 | 1024.2 |
| 20260507010003 | 68 | 77 | 2.0 | 8.0 | 0.00 | 0.01 | 0.00 | 80 | 1024.2 |
| 20260507004606 | 68 | 113 | 2.0 | 7.0 | 0.00 | 0.01 | 0.00 | 81 | 1024.5 |
| 20260507003058 | 68 | 100 | 1.0 | 7.0 | 0.00 | 0.01 | 0.00 | 81 | 1024.5 |
| 20260507001559 | 69 | 54 | 3.0 | 8.0 | 0.00 | 0.01 | 0.00 | 80 | 1024.6 |
| 20260507000056 | 69 | 252 | 3.0 | 9.0 | 0.00 | 0.01 | 0.00 | 80 | 1024.7 |
| 20260506234555 | 70 | 131 | 3.0 | 9.0 | 0.00 | 0.02 | 0.00 | 78 | 1024.9 |
| 20260506233107 | 70 | 117 | 4.0 | 8.0 | 0.00 | 0.02 | 0.00 | 79 | 1025.0 |
| 20260506231555 | 69 | 75 | 2.0 | 10.0 | 0.00 | 0.02 | 0.00 | 78 | 1025.3 |
| 20260506230048 | 69 | 98 | 1.0 | 5.0 | 0.00 | 0.02 | 0.00 | 81 | 1025.4 |
| 20260506224543 | 68 | 105 | 2.0 | 6.0 | 0.00 | 0.04 | 0.00 | 81 | 1025.6 |
| 20260506223044 | 68 | 117 | 2.0 | 6.0 | 0.00 | 0.04 | 0.00 | 81 | 1025.7 |
| 20260506221538 | 68 | 297 | 2.0 | 6.0 | 0.00 | 0.04 | 0.00 | 83 | 1025.8 |
| 20260506220034 | 68 | 104 | 2.0 | 8.0 | 0.00 | 0.04 | 0.00 | 82 | 1025.8 |
| 20260506214540 | 67 | 98 | 2.0 | 12.0 | 0.00 | 0.04 | 0.00 | 82 | 1025.9 |
| 20260506213027 | 66 | 66 | 3.0 | 9.0 | 0.00 | 0.04 | 0.00 | 85 | 1026.0 |
| 20260506211525 | 65 | 131 | 4.0 | 9.0 | 0.00 | 0.04 | 0.00 | 86 | 1026.0 |
| 20260506210027 | 65 | 113 | 4.0 | 9.0 | 0.00 | 0.04 | 0.00 | 88 | 1026.1 |
| 20260506204520 | 64 | 79 | 4.0 | 11.0 | 0.00 | 0.13 | 0.00 | 89 | 1026.2 |
| 20260506203020 | 63 | 95 | 2.0 | 8.0 | 0.00 | 0.13 | 0.00 | 91 | 1026.1 |
| 20260506201518 | 64 | 88 | 1.0 | 6.0 | 0.00 | 0.13 | 0.00 | 93 | 1026.0 |
| 20260506200018 | 63 | 98 | 1.0 | 4.0 | 0.00 | 0.13 | 0.00 | 95 | 1025.8 |
| 20260506194517 | 63 | 101 | 0.0 | 3.0 | 0.00 | 0.17 | 0.00 | 95 | 1025.8 |
| 20260506193015 | 62 | 116 | 0.0 | 2.0 | 0.00 | 0.17 | 0.00 | 96 | 1025.8 |
| 20260506191515 | 63 | 118 | 0.0 | 4.0 | 0.00 | 0.17 | 0.00 | 96 | 1025.9 |
| 20260506190015 | 62 | 104 | 0.0 | 1.0 | 0.00 | 0.17 | 0.00 | 96 | 1025.7 |
| 20260506184524 | 62 | 105 | 0.0 | 1.0 | 0.00 | 0.19 | 0.00 | 96 | 1025.7 |